Showing default

ORBCOMM FM 20, 25416

Orbit data source: Space-Track

ORBCOMM FM 20, 25416 is a payload satellite owned by Orbcomm (US) in LEO that was launched on Sun, 02 Aug 1998 UTC via a PEGASUS XL/HAPS launch vehicle from the Pegasus Launch, Eastern Range Air Space (ERAS). Payload-class satellites include a variety of spacecraft equipped with specific instruments for various scientific and technological missions. These include communications satellites like Starlink; space stations such as the ISS; scientific satellites like the Hubble; Earth observation satellites from companies like Planet Labs, Umbra, and HawkEye 360; GPS; miniature CubeSats for education and research; and military/defense satellites.

Loading next visibility...
Identifier
25416, 1998-046D
Orbit
LEO
Country
Flag of USUS / ORB
Related business
Manufacturer
OSC-Germantown
Mission
Operational Commercial Communications
Bus & Motor
MICROSTAR, Unknown motor
Mass
42 kg wet, 42 kg dry
Launch date (UTC)
1998-08-02 (28 years ago)
Launch vehicle
PEGASUS XL/HAPS
Launch site
Pegasus Launch, Eastern Range Air Space (ERAS)
Object type
Payload
Rocket body
Debris
Shape & HBR
Cyl + 2 Pan, 4.2 m
Radar Cross Section
1.484 m², Medium (>0.1 m² and < 1m²)

Expand to show TLE details & history
Last TLE update: 2 days ago

TLE from 2 days ago
0 ORBCOMM FM 20
1 25416U 98046D   26171.20858727  .00000332  00000-0  15516-3 0  9990
2 25416  44.9929 237.1557 0002401 260.0825  99.9753 14.38069327457222
Epoch: 2026-06-20T05:00Z
TLE epoch observation values (Epoch: 2026-06-20T05:00:21.940Z)
Latitude
0.00006°
Longitude
-106.36216°
Altitude
765.18 km
Speed
7.473 km/s
True Right ascension
15h 48m 37s
True Declination
0° 00' 00"
Sunlit
Object was in full shadow at epoch
Visualization orbit readout
Latitude
Unknown
Longitude
Unknown
Altitude
Unknown
Speed
Unknown
Apparent Right ascension
Unknown
Apparent Declination
Unknown
Sunlit
N/A
Visualization observer readout
Local Sidereal Time
00:51:05
Azimuth
Unknown
Elevation
Unknown
Doppler factor
Unknown
Orbital elements
Apogee altitude
768.147 km
Perigee altitude
764.716 km
Semi-major axis
7,144.569 km
Eccentricity
0.00024
Inclination
44.9929°
RAAN
237.1557°
Arg. of periapsis
260.0825°
True anomaly
100.0024°
Mean anomaly
99.9753°
Eccentric anomaly
99.98885°
Mean motion
3.59401 °/min
Orbital period
100.17 mins
BSTAR
0.00015516
Loading maneuver chart data...
Computing Atmospheric mass density...

Documentation

Showing up to 5 results
|